[Iaude] MPEC C90: 2024 CP1 [a=2.30,e=0.52,i=4.0,H=25.8]

mpec at cfa.harvard.edu mpec at cfa.harvard.edu
Thu Feb 8 16:09:27 EST 2024


M.P.E.C. 2024-C90                              Issued 2024 February 8, 21:07 UT

     The Minor Planet Electronic Circulars contain information on unusual
         minor planets, routine data on comets and natural satellites,
         and occasional editorial announcements.  They are published
    on behalf of Division F of the International Astronomical Union by the
          Minor Planet Center, Smithsonian Astrophysical Observatory,
                          Cambridge, MA 02138, U.S.A.
			  
             Prepared using the Tamkin Foundation Computer Network

                              MPC at CFA.HARVARD.EDU
            URL https://www.minorplanetcenter.net/    ISSN 1523-6714

                                    2024 CP1                                    


Observations:
     K24C01P* C2024 02 04.35430009 18 24.383+12 12 19.55         21.41GVEC090V00
     K24C01P  C2024 02 04.35980509 18 26.089+12 12 23.36         21.62GVEC090V00
     K24C01P  C2024 02 04.36531009 18 27.781+12 12 27.04         21.59GVEC090V00
     K24C01P  C2024 02 04.37080809 18 29.480+12 12 30.89         21.28GVEC090V00
     K24C01P mC2024 02 04.39903509 18 38.228+12 12 50.04         22.07GVEC090V00
     K24C01P mC2024 02 04.39982209 18 38.480+12 12 50.47         21.39GVEC090V00
     K24C01P mC2024 02 04.40060509 18 38.714+12 12 51.01               VEC090V00
     K24C01P mC2024 02 04.40139309 18 38.941+12 12 51.44         21.49GVEC090V00
     K24C01P KC2024 02 04.40177009 18 39.028+12 12 51.12         21.32GVEC090V06
     K24C01P KC2024 02 04.40445009 18 39.866+12 12 53.42         21.70GVEC090V06
     K24C01P KC2024 02 04.40712909 18 40.694+12 12 55.04         21.58GVEC090V06
     K24C01P KC2024 02 04.40980809 18 41.551+12 12 57.02         21.52GVEC090V06
     K24C01P KC2024 02 05.17909 09 23 07.28 +12 22 01.0          22.1 RVEC090291
     K24C01P KC2024 02 05.18656 09 23 09.71 +12 22 06.4          21.8 RVEC090291
     K24C01P KC2024 02 05.19402 09 23 12.11 +12 22 13.2          21.6 RVEC090291
     K24C01P  C2024 02 08.14095309 40 52.64 +12 59 03.4                WEC090X09
     K24C01P  C2024 02 08.15489809 40 57.59 +12 59 13.2                WEC090X09

Observer details:
291 LPL/Spacewatch II.  Observer C. Lejoly.  1.8-m f/2.7 reflector + CCD.
V00 Kitt Peak-Bok.  Observer K. W. Wierzchos.  Measurers M. J. Brucker, C. E.
    Woodward, D. Fay, J. B. Fazekas, D. C. Fuls, A. R. Gibbs, H. Groeller, J.
    K. Hogan, R. A. Kowalski, S. M. Larson, C. Lejoly, G. J. Leonard, R. A.
    Mastaler, R. S. McMillan, D. Rankin, R. L. Seaman, A. Serrano, F. C.
    Shelly, K. W. Wierzchos.  2.25-m reflector + 4x4K mosaic CCD.
V06 Catalina Sky Survey-Kuiper.  Observer G. J. Leonard.  Measurers T. Beuden,
    V. F. Carvajal, D. Fay, J. B. Fazekas, D. C. Fuls, A. R. Gibbs, A. D.
    Grauer, H. Groeller, J. K. Hogan, R. A. Kowalski, S. M. Larson, G. J.
    Leonard, D. Rankin, R. L. Seaman, F. C. Shelly, K. W. Wierzchos.  1.55-m
    reflector + 1K CCD.
X09 Deep Random Survey, Rio Hurtado.  Observers A. Schnabel, D. Ruhela.
    Measurer S. Deen.  0.43-m reflector + CMOS.

Orbital elements:
2024 CP1                                                 Earth MOID = 0.1027 AU
Epoch 2023 Sept. 13.0 TT = JDT 2460200.5                Bell                    
M 314.64103              (2000.0)            P               Q                  
n   0.28285393     Peri.   11.62497     -0.88227678     -0.46858805             
a   2.2984121      Node   140.33202     +0.42605810     -0.83543860             
e   0.5248688      Incl.    4.03037     +0.20015540     -0.28717171             
P   3.48           H   25.84          G   0.15           U   9                  
Residuals in seconds of arc
240204 V00  0.6-  0.2-    240204 V00  0.0   0.3-    240205 291  0.3+  0.3-
240204 V00  0.4-  0.2-    240204 V00  0.3-  0.4-    240205 291  0.1+  0.7-
240204 V00  0.4-  0.3-    240204 V06  0.1-  0.3-    240205 291  0.3-  0.3+
240204 V00  0.4-  0.2-    240204 V06  0.0   0.2+    240208 X09  0.4-  1.1+
240204 V00  0.0   0.2-    240204 V06  0.1-  0.0     240208 X09  0.3+  0.2+
240204 V00  0.1+  0.3-    240204 V06  0.3+  0.2+

Ephemeris:
2024 CP1                 a,e,i = 2.30, 0.52, 4                   q = 1.0920
Date    TT    R. A. (2000) Decl.     Delta      r    Elong.  Phase     V
2024 01 09    07 50 20.7 +09 40 10   0.2226  1.1999   165.2    12.1    23.7
...
2024 01 24    08 27 53.5 +10 23 53   0.1565  1.1391   170.8     7.9    22.7
...
2024 02 01    09 00 55.7 +11 34 48   0.1314  1.1160   174.0     5.3    22.1
...
2024 02 07    09 33 47.5 +12 44 25   0.1177  1.1035   175.4     4.1    21.8
2024 02 08    09 39 57.3 +12 56 29   0.1159  1.1018   175.3     4.2    21.7
2024 02 09    09 46 18.0 +13 08 30   0.1142  1.1003   175.0     4.5    21.7
...
2024 02 15    10 27 33.5 +14 13 18   0.1074  1.0938   171.0     8.1    21.8
...
2024 02 23    11 25 39.0 +14 56 22   0.1070  1.0924   163.7    14.7    22.0
...
2024 03 09    12 50 39.1 +13 49 54   0.1294  1.1118   155.3    21.9    22.7

M. P. C. Staff               (C) Copyright 2024 MPC           M.P.E.C. 2024-C90





More information about the Iaude mailing list